Hot Springs, VA

5:50 AM EST on November 19, 2017 (GMT -0500)
Ingalls

Weather History for KHSP - August, 2014

Change the Weather History Date:

Thursday, August 21, 2014

  Actual Average Record
Temperature  
Mean Temperature 66 °F -  
Max Temperature 73 °F 74 °F 82 °F (1998)
Min Temperature 60 °F 59 °F 51 °F (2012)
Cooling Degree Days 2    
Growing Degree Days 16 (Base 50)    
Moisture  
Dew Point 62 °F    
Average Humidity 87    
Maximum Humidity 100    
Minimum Humidity 68    
Precipitation  
Precipitation 0.67 in - - ()
Sea Level Pressure  
Sea Level Pressure 30.22 in    
Wind  
Wind Speed 9 mph (West)    
Max Wind Speed 15 mph    
Max Gust Speed 30 mph    
Visibility 8 miles    
Events Fog , Rain , Thunderstorm    
Averages and records for this station are not official NWS values.
T = Trace of Precipitation, MM = Missing Value Source: NWS Daily Summary

Daily Weather History Graph

Daily Weather History Graph

Search for Another Location

Airport or City:

Trip Planner

Search our weather history database for the weather conditions in past years. The results will help you decide how hot, cold, wet, or windy it might be!

Date:

Astronomy

Aug. 21, 2014 Rise Set
Actual Time 6:39 AM EDT 8:04 PM EDT
Civil Twilight 6:12 AM EDT 8:32 PM EDT
Nautical Twilight 5:38 AM EDT 9:05 PM EDT
Astronomical Twilight 5:04 AM EDT 9:39 PM EDT
Moon 3:10 AM EDT (8/21) 5:30 PM EDT (8/21)
Length of Visible Light 14h 19m
Length of Day
13h 24m
Waning Crescent, 13% of the Moon is Illuminated
Aug 21
Waning Crescent
Aug 25
New
Sep 2
First Quarter
Sep 8
Full
Sep 15
Last Quarter

Hourly Weather History & Observations

Time (EDT) Temp. Dew Point Humidity Pressure Visibility Wind Dir Wind Speed Gust Speed Precip Events Conditions
12:15 AM 65.5 °F 60.1 °F 83% 30.21 in 10.0 mi WNW 5.8 mph - N/A   Clear
12:55 AM 64.9 °F 60.8 °F 86% 30.20 in 10.0 mi West 10.4 mph - N/A   Mostly Cloudy
1:15 AM 64.9 °F 61.2 °F 88% 30.19 in 10.0 mi West 9.2 mph - N/A   Scattered Clouds
1:35 AM 64.4 °F 61.7 °F 91% 30.18 in 10.0 mi West 6.9 mph - N/A   Clear
1:50 AM 64.0 °F 62.1 °F 93% 30.18 in 10.0 mi West 8.1 mph - N/A   Clear
2:15 AM 63.7 °F 63.0 °F 97% 30.18 in 10.0 mi West 9.2 mph - N/A   Scattered Clouds
2:35 AM 63.9 °F 63.1 °F 97% 30.18 in 10.0 mi West 10.4 mph - N/A   Scattered Clouds
2:55 AM 63.7 °F 63.7 °F 100% 30.18 in 7.0 mi WNW 10.4 mph - N/A   Scattered Clouds
3:15 AM 63.7 °F 63.7 °F 100% 30.18 in 7.0 mi West 9.2 mph - N/A   Scattered Clouds
3:35 AM 63.5 °F 63.5 °F 100% 30.19 in 7.0 mi West 9.2 mph - N/A   Mostly Cloudy
3:55 AM 63.5 °F 63.5 °F 100% 30.19 in 7.0 mi West 11.5 mph - N/A   Overcast
4:15 AM - - N/A% 30.19 in 5.0 mi West 12.7 mph - N/A   Overcast
4:35 AM - - N/A% 30.19 in 5.0 mi West 11.5 mph - N/A   Haze
4:55 AM - - N/A% 30.19 in 4.0 mi West 11.5 mph - N/A   Haze
5:15 AM - - N/A% 30.20 in 4.0 mi West 10.4 mph - N/A   Haze
6:15 AM - - N/A% 30.22 in 5.0 mi West 11.5 mph 19.6 mph N/A   Haze
6:35 AM - - N/A% 30.22 in 5.0 mi WNW 9.2 mph - N/A   Haze
6:55 AM - - N/A% 30.23 in 5.0 mi WNW 8.1 mph - N/A   Haze
7:15 AM - - N/A% 30.23 in 4.0 mi West 10.4 mph - N/A   Haze
7:35 AM - - N/A% 30.23 in 5.0 mi West 10.4 mph - N/A   Haze
7:55 AM - - N/A% 30.23 in 7.0 mi WNW 9.2 mph - N/A   Clear
8:10 AM - - N/A% 30.24 in 7.0 mi West 10.4 mph - N/A   Clear
8:35 AM 63.3 °F 62.6 °F 97% 30.24 in 7.0 mi West 9.2 mph - N/A   Mostly Cloudy
8:55 AM 64.2 °F 61.5 °F 91% 30.25 in 10.0 mi West 10.4 mph - N/A   Overcast
9:15 AM 64.6 °F 61.3 °F 89% 30.25 in 10.0 mi West 10.4 mph - N/A   Mostly Cloudy
9:55 AM 65.8 °F 61.3 °F 85% 30.26 in 10.0 mi West 11.5 mph - N/A   Scattered Clouds
10:10 AM 66.2 °F 61.3 °F 84% 30.26 in 7.0 mi WNW 9.2 mph - N/A   Mostly Cloudy
10:55 AM 68.0 °F 61.3 °F 79% 30.26 in 10.0 mi West 10.4 mph - N/A   Scattered Clouds
11:10 AM 68.0 °F 61.3 °F 79% 30.26 in 10.0 mi WNW 6.9 mph - N/A   Mostly Cloudy
11:35 AM 67.8 °F 62.1 °F 82% 30.26 in 10.0 mi West 6.9 mph - N/A   Mostly Cloudy
11:50 AM 70.3 °F 62.4 °F 76% 30.26 in 10.0 mi NW 5.8 mph - N/A   Scattered Clouds
12:15 PM 70.7 °F 61.5 °F 73% 30.26 in 10.0 mi West 8.1 mph - N/A   Scattered Clouds
12:35 PM 71.6 °F 61.2 °F 70% 30.26 in 10.0 mi WNW 5.8 mph - N/A   Mostly Cloudy
12:55 PM 71.6 °F 61.2 °F 70% 30.26 in 7.0 mi WNW 4.6 mph - N/A   Mostly Cloudy
1:15 PM 71.4 °F 61.2 °F 70% 30.26 in 10.0 mi NW 3.5 mph - N/A   Overcast
1:35 PM 71.2 °F 61.3 °F 71% 30.25 in 10.0 mi West 8.1 mph - N/A   Overcast
1:55 PM 72.0 °F 61.7 °F 70% 30.25 in 10.0 mi WSW 5.8 mph - N/A   Mostly Cloudy
2:15 PM 71.8 °F 62.1 °F 71% 30.25 in 10.0 mi WSW 5.8 mph - N/A   Mostly Cloudy
2:35 PM 73.0 °F 63.5 °F 72% 30.25 in 10.0 mi West 8.1 mph - N/A   Scattered Clouds
2:55 PM 72.5 °F 63.0 °F 72% 30.25 in 10.0 mi WNW 5.8 mph - N/A   Mostly Cloudy
3:15 PM 72.0 °F 61.7 °F 70% 30.25 in 10.0 mi West 6.9 mph - N/A   Overcast
3:35 PM 71.8 °F 61.3 °F 70% 30.25 in 10.0 mi West 6.9 mph - N/A   Mostly Cloudy
3:55 PM 71.1 °F 61.3 °F 71% 30.24 in 10.0 mi West 6.9 mph - N/A   Overcast
4:15 PM 71.2 °F 60.1 °F 68% 30.23 in 10.0 mi West 9.2 mph - N/A   Overcast
4:35 PM 68.9 °F 61.0 °F 76% 30.24 in 10.0 mi West 5.8 mph - N/A Thunderstorm Drizzle
4:55 PM 63.0 °F 63.0 °F 100% 30.25 in 0.2 mi WNW 15.0 mph 29.9 mph 0.61 in Rain , Thunderstorm Heavy Thunderstorms and Rain
5:10 PM 60.8 °F 60.8 °F 100% 30.22 in 4.0 mi WNW 11.5 mph 21.9 mph 0.04 in Rain , Thunderstorm Light Thunderstorms and Rain
5:55 PM 61.7 °F 61.0 °F 97% 30.21 in 10.0 mi WNW 10.4 mph - 0.06 in Rain Light Rain
6:15 PM 62.8 °F 60.6 °F 93% 30.22 in 10.0 mi West 10.4 mph - N/A   Scattered Clouds
6:35 PM 63.3 °F 59.2 °F 86% 30.22 in 10.0 mi West 12.7 mph 16.1 mph N/A   Mostly Cloudy
6:55 PM 63.5 °F 60.4 °F 90% 30.22 in 10.0 mi West 9.2 mph - N/A   Overcast
7:15 PM 63.7 °F 62.1 °F 94% 30.22 in 10.0 mi West 12.7 mph - N/A   Mostly Cloudy
7:35 PM 63.1 °F 62.6 °F 98% 30.22 in 10.0 mi West 9.2 mph - N/A   Mostly Cloudy
7:55 PM 63.3 °F 61.9 °F 95% 30.21 in 10.0 mi West 9.2 mph - N/A   Overcast
8:15 PM 63.5 °F 60.8 °F 91% 30.22 in 10.0 mi West 8.1 mph - N/A   Overcast
8:35 PM 62.8 °F 61.3 °F 95% 30.21 in 10.0 mi West 9.2 mph - N/A   Overcast
8:55 PM 62.6 °F 62.6 °F 100% 30.21 in 7.0 mi West 11.5 mph - N/A   Overcast
9:15 PM 62.8 °F 62.8 °F 100% 30.21 in 0.2 mi West 11.5 mph - N/A Fog Fog
9:35 PM 62.6 °F 62.6 °F 100% 30.22 in 2.5 mi West 11.5 mph - N/A   Mostly Cloudy
9:55 PM 62.6 °F 62.6 °F 100% 30.22 in 10.0 mi West 11.5 mph 17.3 mph N/A   Mostly Cloudy
10:30 PM 63.0 °F 63.0 °F 100% 30.22 in 0.2 mi West 10.4 mph - N/A Fog Fog
10:55 PM 63.1 °F 63.1 °F 100% 30.22 in 0.2 mi West 10.4 mph 16.1 mph N/A Fog Fog
11:15 PM 63.0 °F 63.0 °F 100% 30.22 in 0.2 mi West 13.8 mph - N/A Fog Fog
11:35 PM 63.1 °F 63.1 °F 100% 30.22 in 0.2 mi West 12.7 mph 17.3 mph N/A Fog Fog